Year,Month,Day,Hour,Minute,Value (Times are PST for temperature in C)
2014,10,24,00,00,3.40
2014,10,24,00,01,3.30
2014,10,24,00,02,3.30
2014,10,24,00,03,3.30
2014,10,24,00,04,3.30
2014,10,24,00,05,3.30
2014,10,24,00,06,3.30
2014,10,24,00,07,3.30
2014,10,24,00,08,3.30
2014,10,24,00,09,3.30
2014,10,24,00,10,3.30
2014,10,24,00,11,3.30
2014,10,24,00,12,3.30
2014,10,24,00,13,3.30
2014,10,24,00,14,3.30
2014,10,24,00,15,3.30
2014,10,24,00,16,3.30
2014,10,24,00,17,3.30
2014,10,24,00,18,3.20
2014,10,24,00,19,3.20
2014,10,24,00,20,3.20
2014,10,24,00,21,3.20
2014,10,24,00,22,3.20
2014,10,24,00,23,3.20
2014,10,24,00,24,3.20
2014,10,24,00,25,3.20
2014,10,24,00,26,3.20
2014,10,24,00,27,3.20
2014,10,24,00,28,3.20
2014,10,24,00,29,3.30
2014,10,24,00,30,3.30
2014,10,24,00,31,3.30
2014,10,24,00,32,3.20
2014,10,24,00,33,3.30
2014,10,24,00,34,3.20
2014,10,24,00,35,3.20
2014,10,24,00,36,3.20
2014,10,24,00,37,3.20
2014,10,24,00,38,3.20
2014,10,24,00,39,3.20
2014,10,24,00,40,3.20
2014,10,24,00,41,3.20
2014,10,24,00,42,3.20
2014,10,24,00,43,3.20
2014,10,24,00,44,3.20
2014,10,24,00,45,3.20
2014,10,24,00,46,3.20
2014,10,24,00,47,3.10
2014,10,24,00,48,3.10
2014,10,24,00,49,3.10
2014,10,24,00,50,3.10
2014,10,24,00,51,3.10
2014,10,24,00,52,3.10
2014,10,24,00,53,3.00
2014,10,24,00,54,3.00
2014,10,24,00,55,3.00
2014,10,24,00,56,3.00
2014,10,24,00,57,3.00
2014,10,24,00,58,3.00
2014,10,24,00,59,3.00
2014,10,24,01,00,3.00
2014,10,24,01,01,3.00
2014,10,24,01,02,3.00
2014,10,24,01,03,3.00
2014,10,24,01,04,3.00
2014,10,24,01,05,3.00
2014,10,24,01,06,3.00
2014,10,24,01,07,3.00
2014,10,24,01,08,3.00
2014,10,24,01,09,3.00
2014,10,24,01,10,3.00
2014,10,24,01,11,3.00
2014,10,24,01,12,3.00
2014,10,24,01,13,3.00
2014,10,24,01,14,2.90
2014,10,24,01,15,2.90
2014,10,24,01,16,2.90
2014,10,24,01,17,2.90
2014,10,24,01,18,2.90
2014,10,24,01,19,2.90
2014,10,24,01,20,2.90
2014,10,24,01,21,2.90
2014,10,24,01,22,2.90
2014,10,24,01,23,2.90
2014,10,24,01,24,2.90
2014,10,24,01,25,2.90
2014,10,24,01,26,2.90
2014,10,24,01,27,2.80
2014,10,24,01,28,2.80
2014,10,24,01,29,2.80
2014,10,24,01,30,2.80
2014,10,24,01,31,2.80
2014,10,24,01,32,2.70
2014,10,24,01,33,2.70
2014,10,24,01,34,2.70
2014,10,24,01,35,2.70
2014,10,24,01,36,2.70
2014,10,24,01,37,2.70
2014,10,24,01,38,2.70
2014,10,24,01,39,2.70
2014,10,24,01,40,2.70
2014,10,24,01,41,2.70
2014,10,24,01,42,2.70
2014,10,24,01,43,2.70
2014,10,24,01,44,2.70
2014,10,24,01,45,2.70
2014,10,24,01,46,2.70
2014,10,24,01,47,2.70
2014,10,24,01,48,2.70
2014,10,24,01,49,2.70
2014,10,24,01,50,2.70
2014,10,24,01,51,2.80
2014,10,24,01,52,2.80
2014,10,24,01,53,2.80
2014,10,24,01,54,2.80
2014,10,24,01,55,2.70
2014,10,24,01,56,2.70
2014,10,24,01,57,2.70
2014,10,24,01,58,2.60
2014,10,24,01,59,2.60
2014,10,24,02,00,2.60
2014,10,24,02,01,2.60
2014,10,24,02,02,2.60
2014,10,24,02,03,2.60
2014,10,24,02,04,2.60
2014,10,24,02,05,2.60
2014,10,24,02,06,2.60
2014,10,24,02,07,2.60
2014,10,24,02,08,2.60
2014,10,24,02,09,2.60
2014,10,24,02,10,2.60
2014,10,24,02,11,2.60
2014,10,24,02,12,2.60
2014,10,24,02,13,2.60
2014,10,24,02,14,2.70
2014,10,24,02,15,2.70
2014,10,24,02,16,2.70
2014,10,24,02,17,2.70
2014,10,24,02,18,2.70
2014,10,24,02,19,2.80
2014,10,24,02,20,2.80
2014,10,24,02,21,2.80
2014,10,24,02,22,2.80
2014,10,24,02,23,2.90
2014,10,24,02,24,2.90
2014,10,24,02,25,2.90
2014,10,24,02,26,3.00
2014,10,24,02,27,3.00
2014,10,24,02,28,3.10
2014,10,24,02,29,3.10
2014,10,24,02,30,3.10
2014,10,24,02,31,3.20
2014,10,24,02,32,3.20
2014,10,24,02,33,3.20
2014,10,24,02,34,3.20
2014,10,24,02,35,3.20
2014,10,24,02,36,3.20
2014,10,24,02,37,3.30
2014,10,24,02,38,3.30
2014,10,24,02,39,3.30
2014,10,24,02,40,3.30
2014,10,24,02,41,3.30
2014,10,24,02,42,3.30
2014,10,24,02,43,3.30
2014,10,24,02,44,3.30
2014,10,24,02,45,3.30
2014,10,24,02,46,3.30
2014,10,24,02,47,3.40
2014,10,24,02,48,3.40
2014,10,24,02,49,3.40
2014,10,24,02,50,3.40
2014,10,24,02,51,3.40
2014,10,24,02,52,3.40
2014,10,24,02,53,3.40
2014,10,24,02,54,3.40
2014,10,24,02,55,3.40
2014,10,24,02,56,3.40
2014,10,24,02,57,3.40
2014,10,24,02,58,3.40
2014,10,24,02,59,3.40
2014,10,24,03,00,3.50
2014,10,24,03,01,3.50
2014,10,24,03,02,3.50
2014,10,24,03,03,3.50
2014,10,24,03,04,3.50
2014,10,24,03,05,3.50
2014,10,24,03,06,3.50
2014,10,24,03,07,3.50
2014,10,24,03,08,3.50
2014,10,24,03,09,3.50
2014,10,24,03,10,3.50
2014,10,24,03,11,3.50
2014,10,24,03,12,3.50
2014,10,24,03,13,3.50
2014,10,24,03,14,3.50
2014,10,24,03,15,3.50
2014,10,24,03,16,3.50
2014,10,24,03,17,3.50
2014,10,24,03,18,3.50
2014,10,24,03,19,3.50
2014,10,24,03,20,3.50
2014,10,24,03,21,3.50
2014,10,24,03,22,3.50
2014,10,24,03,23,3.40
2014,10,24,03,24,3.40
2014,10,24,03,25,3.40
2014,10,24,03,26,3.50
2014,10,24,03,27,3.40
2014,10,24,03,28,3.40
2014,10,24,03,29,3.40
2014,10,24,03,30,3.40
2014,10,24,03,31,3.50
2014,10,24,03,32,3.50
2014,10,24,03,33,3.50
2014,10,24,03,34,3.50
2014,10,24,03,35,3.50
2014,10,24,03,36,3.50
2014,10,24,03,37,3.50
2014,10,24,03,38,3.60
2014,10,24,03,39,3.60
2014,10,24,03,40,3.60
2014,10,24,03,41,3.60
2014,10,24,03,42,3.60
2014,10,24,03,43,3.60
2014,10,24,03,44,3.60
2014,10,24,03,45,3.60
2014,10,24,03,46,3.60
2014,10,24,03,47,3.60
2014,10,24,03,48,3.70
2014,10,24,03,49,3.70
2014,10,24,03,50,3.70
2014,10,24,03,51,3.70
2014,10,24,03,52,3.70
2014,10,24,03,53,3.60
2014,10,24,03,54,3.60
2014,10,24,03,55,3.60
2014,10,24,03,56,3.60
2014,10,24,03,57,3.60
2014,10,24,03,58,3.60
2014,10,24,03,59,3.60
2014,10,24,04,00,3.60
2014,10,24,04,01,3.60
2014,10,24,04,02,3.60
2014,10,24,04,03,3.60
2014,10,24,04,04,3.60
2014,10,24,04,05,3.60
2014,10,24,04,06,3.60
2014,10,24,04,07,3.60
2014,10,24,04,08,3.60
2014,10,24,04,09,3.70
2014,10,24,04,10,3.70
2014,10,24,04,11,3.70
2014,10,24,04,12,3.70
2014,10,24,04,13,3.70
2014,10,24,04,14,3.70
2014,10,24,04,15,3.70
2014,10,24,04,16,3.70
2014,10,24,04,17,3.70
2014,10,24,04,18,3.70
2014,10,24,04,19,3.70
2014,10,24,04,20,3.70
2014,10,24,04,21,3.70
2014,10,24,04,22,3.70
2014,10,24,04,23,3.70
2014,10,24,04,24,3.70
2014,10,24,04,25,3.70
2014,10,24,04,26,3.70
2014,10,24,04,27,3.70
2014,10,24,04,28,3.70
2014,10,24,04,29,3.60
2014,10,24,04,30,3.60
2014,10,24,04,31,3.60
2014,10,24,04,32,3.50
2014,10,24,04,33,3.50
2014,10,24,04,34,3.40
2014,10,24,04,35,3.30
2014,10,24,04,36,3.30
2014,10,24,04,37,3.30
2014,10,24,04,38,3.20
2014,10,24,04,39,3.20
2014,10,24,04,40,3.10
2014,10,24,04,41,3.10
2014,10,24,04,42,3.10
2014,10,24,04,43,3.10
2014,10,24,04,44,3.10
2014,10,24,04,45,3.10
2014,10,24,04,46,3.10
2014,10,24,04,47,3.10
2014,10,24,04,48,3.10
2014,10,24,04,49,3.10
2014,10,24,04,50,3.10
2014,10,24,04,51,3.10
2014,10,24,04,52,3.10
2014,10,24,04,53,3.10
2014,10,24,04,54,3.20
2014,10,24,04,55,3.20
2014,10,24,04,56,3.20
2014,10,24,04,57,3.20
2014,10,24,04,58,3.20
2014,10,24,04,59,3.20
2014,10,24,05,00,3.20
2014,10,24,05,01,3.20
2014,10,24,05,02,3.20
2014,10,24,05,03,3.20
2014,10,24,05,04,3.20
2014,10,24,05,05,3.20
2014,10,24,05,06,3.20
2014,10,24,05,07,3.20
2014,10,24,05,08,3.20
2014,10,24,05,09,3.20
2014,10,24,05,10,3.20
2014,10,24,05,11,3.20
2014,10,24,05,12,3.20
2014,10,24,05,13,3.20
2014,10,24,05,14,3.20
2014,10,24,05,15,3.20
2014,10,24,05,16,3.20
2014,10,24,05,17,3.20
2014,10,24,05,18,3.20
2014,10,24,05,19,3.20
2014,10,24,05,20,3.20
2014,10,24,05,21,3.20
2014,10,24,05,22,3.30
2014,10,24,05,23,3.30
2014,10,24,05,24,3.30
2014,10,24,05,25,3.30
2014,10,24,05,26,3.30
2014,10,24,05,27,3.30
2014,10,24,05,28,3.30
2014,10,24,05,29,3.30
2014,10,24,05,30,3.30
2014,10,24,05,31,3.30
2014,10,24,05,32,3.30
2014,10,24,05,33,3.30
2014,10,24,05,34,3.30
2014,10,24,05,35,3.30
2014,10,24,05,36,3.30
2014,10,24,05,37,3.30
2014,10,24,05,38,3.30
2014,10,24,05,39,3.30
2014,10,24,05,40,3.30
2014,10,24,05,41,3.20
2014,10,24,05,42,3.20
2014,10,24,05,43,3.20
2014,10,24,05,44,3.20
2014,10,24,05,45,3.20
2014,10,24,05,46,3.20
2014,10,24,05,47,3.20
2014,10,24,05,48,3.20
2014,10,24,05,49,3.10
2014,10,24,05,50,3.10
2014,10,24,05,51,3.10
2014,10,24,05,52,3.10
2014,10,24,05,53,3.10
2014,10,24,05,54,3.10
2014,10,24,05,55,3.10
2014,10,24,05,56,3.10
2014,10,24,05,57,3.10
2014,10,24,05,58,3.10
2014,10,24,05,59,3.10
2014,10,24,06,00,3.10
2014,10,24,06,01,3.20
2014,10,24,06,02,3.20
2014,10,24,06,03,3.20
2014,10,24,06,04,3.20
2014,10,24,06,05,3.30
2014,10,24,06,06,3.30
2014,10,24,06,07,3.30
2014,10,24,06,08,3.30
2014,10,24,06,09,3.30
2014,10,24,06,10,3.30
2014,10,24,06,11,3.30
2014,10,24,06,12,3.40
2014,10,24,06,13,3.40
2014,10,24,06,14,3.40
2014,10,24,06,15,3.40
2014,10,24,06,16,3.40
2014,10,24,06,17,3.50
2014,10,24,06,18,3.60
2014,10,24,06,19,3.60
2014,10,24,06,20,3.70
2014,10,24,06,21,3.70
2014,10,24,06,22,3.80
2014,10,24,06,23,3.80
2014,10,24,06,24,3.80
2014,10,24,06,25,3.80
2014,10,24,06,26,3.90
2014,10,24,06,27,3.90
2014,10,24,06,28,3.90
2014,10,24,06,29,4.00
2014,10,24,06,30,4.00
2014,10,24,06,31,4.00
2014,10,24,06,32,4.10
2014,10,24,06,33,4.10
2014,10,24,06,34,4.20
2014,10,24,06,35,4.20
2014,10,24,06,36,4.20
2014,10,24,06,37,4.20
2014,10,24,06,38,4.30
2014,10,24,06,39,4.30
2014,10,24,06,40,4.30
2014,10,24,06,41,4.30
2014,10,24,06,42,4.30
2014,10,24,06,43,4.30
2014,10,24,06,44,4.30
2014,10,24,06,45,4.30
2014,10,24,06,46,4.20
2014,10,24,06,47,4.20
2014,10,24,06,48,4.20
2014,10,24,06,49,4.30
2014,10,24,06,50,4.30
2014,10,24,06,51,4.20
2014,10,24,06,52,4.20
2014,10,24,06,53,4.10
2014,10,24,06,54,4.10
2014,10,24,06,55,4.00
2014,10,24,06,56,4.00
2014,10,24,06,57,3.90
2014,10,24,06,58,3.90
2014,10,24,06,59,3.80
2014,10,24,07,00,3.80
2014,10,24,07,01,3.80
2014,10,24,07,02,3.80
2014,10,24,07,03,3.70
2014,10,24,07,04,3.70
2014,10,24,07,05,3.70
2014,10,24,07,06,3.70
2014,10,24,07,07,3.70
2014,10,24,07,08,3.70
2014,10,24,07,09,3.80
2014,10,24,07,10,3.80
2014,10,24,07,11,3.80
2014,10,24,07,12,3.80
2014,10,24,07,13,3.80
2014,10,24,07,14,3.80
2014,10,24,07,15,3.80
2014,10,24,07,16,3.80
2014,10,24,07,17,3.80
2014,10,24,07,18,3.80
2014,10,24,07,19,3.80
2014,10,24,07,20,3.80
2014,10,24,07,21,3.80
2014,10,24,07,22,3.90
2014,10,24,07,23,3.90
2014,10,24,07,24,3.90
2014,10,24,07,25,3.90
2014,10,24,07,26,3.90
2014,10,24,07,27,3.90
2014,10,24,07,28,3.90
2014,10,24,07,29,3.90
2014,10,24,07,30,3.90
2014,10,24,07,31,3.90
2014,10,24,07,32,3.90
2014,10,24,07,33,3.90
2014,10,24,07,34,4.00
2014,10,24,07,35,4.00
2014,10,24,07,36,4.00
2014,10,24,07,37,4.00
2014,10,24,07,38,4.00
2014,10,24,07,39,4.10
2014,10,24,07,40,4.10
2014,10,24,07,41,4.10
2014,10,24,07,42,4.10
2014,10,24,07,43,4.20
2014,10,24,07,44,4.20
2014,10,24,07,45,4.30
2014,10,24,07,46,4.30
2014,10,24,07,47,4.30
2014,10,24,07,48,4.40
2014,10,24,07,49,4.40
2014,10,24,07,50,4.50
2014,10,24,07,51,4.50
2014,10,24,07,52,4.50
2014,10,24,07,53,4.50
2014,10,24,07,54,4.50
2014,10,24,07,55,4.50
2014,10,24,07,56,4.50
2014,10,24,07,57,4.50
2014,10,24,07,58,4.40
2014,10,24,07,59,4.40
2014,10,24,08,00,4.40
2014,10,24,08,01,4.40
2014,10,24,08,02,4.40
2014,10,24,08,03,4.30
2014,10,24,08,04,4.30
2014,10,24,08,05,4.30
2014,10,24,08,06,4.30
2014,10,24,08,07,4.30
2014,10,24,08,08,4.30
2014,10,24,08,09,4.30
2014,10,24,08,10,4.30
2014,10,24,08,11,4.30
2014,10,24,08,12,4.30
2014,10,24,08,13,4.30
2014,10,24,08,14,4.30
2014,10,24,08,15,4.30
2014,10,24,08,16,4.40
2014,10,24,08,17,4.40
2014,10,24,08,18,4.40
2014,10,24,08,19,4.40
2014,10,24,08,20,4.40
2014,10,24,08,21,4.40
2014,10,24,08,22,4.50
2014,10,24,08,23,4.50
2014,10,24,08,24,4.60
2014,10,24,08,25,4.60
2014,10,24,08,26,4.60
2014,10,24,08,27,4.60
2014,10,24,08,28,4.60
2014,10,24,08,29,4.60
2014,10,24,08,30,4.60
2014,10,24,08,31,4.60
2014,10,24,08,32,4.60
2014,10,24,08,33,4.60
2014,10,24,08,34,4.60
2014,10,24,08,35,4.60
2014,10,24,08,36,4.60
2014,10,24,08,37,4.70
2014,10,24,08,38,4.70
2014,10,24,08,39,4.70
2014,10,24,08,40,4.70
2014,10,24,08,41,4.70
2014,10,24,08,42,4.80
2014,10,24,08,43,4.80
2014,10,24,08,44,4.90
2014,10,24,08,45,4.90
2014,10,24,08,46,5.00
2014,10,24,08,47,5.10
2014,10,24,08,48,5.10
2014,10,24,08,49,5.10
2014,10,24,08,50,5.10
2014,10,24,08,51,5.20
2014,10,24,08,52,5.20
2014,10,24,08,53,5.20
2014,10,24,08,54,5.30
2014,10,24,08,55,5.30
2014,10,24,08,56,5.40
2014,10,24,08,57,5.40
2014,10,24,08,58,5.40
2014,10,24,08,59,5.40
2014,10,24,09,00,5.50
2014,10,24,09,01,5.50
2014,10,24,09,02,5.50
2014,10,24,09,03,5.50
2014,10,24,09,04,5.50
2014,10,24,09,05,5.50
2014,10,24,09,06,5.50
2014,10,24,09,07,5.50
2014,10,24,09,08,5.50
2014,10,24,09,09,5.60
2014,10,24,09,10,5.60
2014,10,24,09,11,5.60
2014,10,24,09,12,5.60
2014,10,24,09,13,5.60
2014,10,24,09,14,5.60
2014,10,24,09,15,5.60
2014,10,24,09,16,5.60
2014,10,24,09,17,5.60
2014,10,24,09,18,5.60
2014,10,24,09,19,5.60
2014,10,24,09,20,5.70
2014,10,24,09,21,5.70
2014,10,24,09,22,5.70
2014,10,24,09,23,5.70
2014,10,24,09,24,5.70
2014,10,24,09,25,5.70
2014,10,24,09,26,5.80
2014,10,24,09,27,5.80
2014,10,24,09,28,5.80
2014,10,24,09,29,5.80
2014,10,24,09,30,5.80
2014,10,24,09,31,5.80
2014,10,24,09,32,5.80
2014,10,24,09,33,5.80
2014,10,24,09,34,5.80
2014,10,24,09,35,5.80
2014,10,24,09,36,5.80
2014,10,24,09,37,5.80
2014,10,24,09,38,5.80
2014,10,24,09,39,5.80
2014,10,24,09,40,5.90
2014,10,24,09,41,5.90
2014,10,24,09,42,5.90
2014,10,24,09,43,5.90
2014,10,24,09,44,5.90
2014,10,24,09,45,5.90
2014,10,24,09,46,5.90
2014,10,24,09,47,6.00
2014,10,24,09,48,6.00
2014,10,24,09,49,6.00
2014,10,24,09,50,6.00
2014,10,24,09,51,6.00
2014,10,24,09,52,6.00
2014,10,24,09,53,6.10
2014,10,24,09,54,6.10
2014,10,24,09,55,6.10
2014,10,24,09,56,6.10
2014,10,24,09,57,6.10
2014,10,24,09,58,6.10
2014,10,24,09,59,6.10
2014,10,24,10,00,6.10
2014,10,24,10,01,6.10
2014,10,24,10,02,6.10
2014,10,24,10,03,6.20
2014,10,24,10,04,6.20
2014,10,24,10,05,6.20
2014,10,24,10,06,6.20
2014,10,24,10,07,6.20
2014,10,24,10,08,6.20
2014,10,24,10,09,6.20
2014,10,24,10,10,6.30
2014,10,24,10,11,6.30
2014,10,24,10,12,6.30
2014,10,24,10,13,6.40
2014,10,24,10,14,6.40
2014,10,24,10,15,6.40
2014,10,24,10,16,6.40
2014,10,24,10,17,6.50
2014,10,24,10,18,6.50
2014,10,24,10,19,6.50
2014,10,24,10,20,6.60
2014,10,24,10,21,6.60
2014,10,24,10,22,6.60
2014,10,24,10,23,6.70
2014,10,24,10,24,6.70
2014,10,24,10,25,6.70
2014,10,24,10,26,6.80
2014,10,24,10,27,6.80
2014,10,24,10,28,6.80
2014,10,24,10,29,6.90
2014,10,24,10,30,6.90
2014,10,24,10,31,7.00
2014,10,24,10,32,7.00
2014,10,24,10,33,7.00
2014,10,24,10,34,7.10
2014,10,24,10,35,7.10
2014,10,24,10,36,7.10
2014,10,24,10,37,7.10
2014,10,24,10,38,7.10
2014,10,24,10,39,7.10
2014,10,24,10,40,7.10
2014,10,24,10,41,7.20
2014,10,24,10,42,7.20
2014,10,24,10,43,7.20
2014,10,24,10,44,7.20
2014,10,24,10,45,7.30
2014,10,24,10,46,7.30
2014,10,24,10,47,7.30
2014,10,24,10,48,7.30
2014,10,24,10,49,7.30
2014,10,24,10,50,7.30
2014,10,24,10,51,7.30
2014,10,24,10,52,7.30
2014,10,24,10,53,7.30
2014,10,24,10,54,7.30
2014,10,24,10,55,7.40
2014,10,24,10,56,7.40
2014,10,24,10,57,7.40
2014,10,24,10,58,7.40
2014,10,24,10,59,7.40
2014,10,24,11,00,7.40
2014,10,24,11,01,7.40
2014,10,24,11,02,7.50
2014,10,24,11,03,7.50
2014,10,24,11,04,7.50
2014,10,24,11,05,7.50
2014,10,24,11,06,7.60
2014,10,24,11,07,7.60
2014,10,24,11,08,7.60
2014,10,24,11,09,7.60
2014,10,24,11,10,7.70
2014,10,24,11,11,7.70
2014,10,24,11,12,7.70
2014,10,24,11,13,7.80
2014,10,24,11,14,7.80
2014,10,24,11,15,7.90
2014,10,24,11,16,7.90
2014,10,24,11,17,8.00
2014,10,24,11,18,8.00
2014,10,24,11,19,8.10
2014,10,24,11,20,8.20
2014,10,24,11,21,8.30
2014,10,24,11,22,8.30
2014,10,24,11,23,8.40
2014,10,24,11,24,8.50
2014,10,24,11,25,8.50
2014,10,24,11,26,8.60
2014,10,24,11,27,8.60
2014,10,24,11,28,8.70
2014,10,24,11,29,8.70
2014,10,24,11,30,8.70
2014,10,24,11,31,8.80
2014,10,24,11,32,8.80
2014,10,24,11,33,8.80
2014,10,24,11,34,8.80
2014,10,24,11,35,8.80
2014,10,24,11,36,8.80
2014,10,24,11,37,8.70
2014,10,24,11,38,8.70
2014,10,24,11,39,8.70
2014,10,24,11,40,8.70
2014,10,24,11,41,8.70
2014,10,24,11,42,8.70
2014,10,24,11,43,8.80
2014,10,24,11,44,8.80
2014,10,24,11,45,8.80
2014,10,24,11,46,8.80
2014,10,24,11,47,8.80
2014,10,24,11,48,8.80
2014,10,24,11,49,8.80
2014,10,24,11,50,8.80
2014,10,24,11,51,8.90
2014,10,24,11,52,8.90
2014,10,24,11,53,8.90
2014,10,24,11,54,8.90
2014,10,24,11,55,8.90
2014,10,24,11,56,8.90
2014,10,24,11,57,8.90
2014,10,24,11,58,8.90
2014,10,24,11,59,8.90
2014,10,24,12,00,8.90
2014,10,24,12,01,8.90
2014,10,24,12,02,8.90
2014,10,24,12,03,8.90
2014,10,24,12,04,9.00
2014,10,24,12,05,9.00
2014,10,24,12,06,9.00
2014,10,24,12,07,9.10
2014,10,24,12,08,9.10
2014,10,24,12,09,9.10
2014,10,24,12,10,9.20
2014,10,24,12,11,9.20
2014,10,24,12,12,9.20
2014,10,24,12,13,9.30
2014,10,24,12,14,9.30
2014,10,24,12,15,9.30
2014,10,24,12,16,9.40
2014,10,24,12,17,9.40
2014,10,24,12,18,9.50
2014,10,24,12,19,9.50
2014,10,24,12,20,9.60
2014,10,24,12,21,9.60
2014,10,24,12,22,9.60
2014,10,24,12,23,9.60
2014,10,24,12,24,9.60
2014,10,24,12,25,9.60
2014,10,24,12,26,9.60
2014,10,24,12,27,9.60
2014,10,24,12,28,9.70
2014,10,24,12,29,9.70
2014,10,24,12,30,9.70
2014,10,24,12,31,9.70
2014,10,24,12,32,9.70
2014,10,24,12,33,9.70
2014,10,24,12,34,9.80
2014,10,24,12,35,9.80
2014,10,24,12,36,9.80
2014,10,24,12,37,9.90
2014,10,24,12,38,9.90
2014,10,24,12,39,10.00
2014,10,24,12,40,10.00
2014,10,24,12,41,10.00
2014,10,24,12,42,10.00
2014,10,24,12,43,10.00
2014,10,24,12,44,10.00
2014,10,24,12,45,10.00
2014,10,24,12,46,10.00
2014,10,24,12,47,10.10
2014,10,24,12,48,10.10
2014,10,24,12,49,10.10
2014,10,24,12,50,10.10
2014,10,24,12,51,10.10
2014,10,24,12,52,10.20
2014,10,24,12,53,10.20
2014,10,24,12,54,10.20
2014,10,24,12,55,10.30
2014,10,24,12,56,10.30
2014,10,24,12,57,10.30
2014,10,24,12,58,10.30
2014,10,24,12,59,10.30
2014,10,24,13,00,10.30
2014,10,24,13,01,10.30
2014,10,24,13,02,10.30
2014,10,24,13,03,10.30
2014,10,24,13,04,10.30
2014,10,24,13,05,10.30
2014,10,24,13,06,10.40
2014,10,24,13,07,10.40
2014,10,24,13,08,10.40
2014,10,24,13,09,10.40
2014,10,24,13,10,10.40
2014,10,24,13,11,10.40
2014,10,24,13,12,10.50
2014,10,24,13,13,10.40
2014,10,24,13,14,10.50
2014,10,24,13,15,10.50
2014,10,24,13,16,10.40
2014,10,24,13,17,10.40
2014,10,24,13,18,10.40
2014,10,24,13,19,10.40
2014,10,24,13,20,10.40
2014,10,24,13,21,10.40
2014,10,24,13,22,10.40
2014,10,24,13,23,10.40
2014,10,24,13,24,10.40
2014,10,24,13,25,10.40
2014,10,24,13,26,10.40
2014,10,24,13,27,10.50
2014,10,24,13,28,10.50
2014,10,24,13,29,10.60
2014,10,24,13,30,10.60
2014,10,24,13,31,10.60
2014,10,24,13,32,10.60
2014,10,24,13,33,10.60
2014,10,24,13,34,10.60
2014,10,24,13,35,10.70
2014,10,24,13,36,10.70
2014,10,24,13,37,10.70
2014,10,24,13,38,10.70
2014,10,24,13,39,10.70
2014,10,24,13,40,10.70
2014,10,24,13,41,10.70
2014,10,24,13,42,10.70
2014,10,24,13,43,10.70
2014,10,24,13,44,10.70
2014,10,24,13,45,10.70
2014,10,24,13,46,10.70
2014,10,24,13,47,10.70
2014,10,24,13,48,10.70
2014,10,24,13,49,10.80
2014,10,24,13,50,10.80
2014,10,24,13,51,10.80
2014,10,24,13,52,10.80
2014,10,24,13,53,10.80
2014,10,24,13,54,10.80
2014,10,24,13,55,10.80
2014,10,24,13,56,10.80
2014,10,24,13,57,10.90
2014,10,24,13,58,10.90
2014,10,24,13,59,10.90
2014,10,24,14,00,10.90
2014,10,24,14,01,10.90
2014,10,24,14,02,10.90
2014,10,24,14,03,10.90
2014,10,24,14,04,10.90
2014,10,24,14,05,10.90
2014,10,24,14,06,10.90
2014,10,24,14,07,10.90
2014,10,24,14,08,10.90
2014,10,24,14,09,10.90
2014,10,24,14,10,10.90
2014,10,24,14,11,10.90
2014,10,24,14,12,10.90
2014,10,24,14,13,10.90
2014,10,24,14,14,10.90
2014,10,24,14,15,11.00
2014,10,24,14,16,11.00
2014,10,24,14,17,11.00
2014,10,24,14,18,11.00
2014,10,24,14,19,11.00
2014,10,24,14,20,11.00
2014,10,24,14,21,11.00
2014,10,24,14,22,11.00
2014,10,24,14,23,11.00
2014,10,24,14,24,11.00
2014,10,24,14,25,11.00
2014,10,24,14,26,11.10
2014,10,24,14,27,11.10
2014,10,24,14,28,11.10
2014,10,24,14,29,11.10
2014,10,24,14,30,11.10
2014,10,24,14,31,11.10
2014,10,24,14,32,11.10
2014,10,24,14,33,11.10
2014,10,24,14,34,11.10
2014,10,24,14,35,11.20
2014,10,24,14,36,11.20
2014,10,24,14,37,11.20
2014,10,24,14,38,11.20
2014,10,24,14,39,11.20
2014,10,24,14,40,11.20
2014,10,24,14,41,11.20
2014,10,24,14,42,11.20
2014,10,24,14,43,11.20
2014,10,24,14,44,11.10
2014,10,24,14,45,11.10
2014,10,24,14,46,11.10
2014,10,24,14,47,11.10
2014,10,24,14,48,11.10
2014,10,24,14,49,11.10
2014,10,24,14,50,11.10
2014,10,24,14,51,11.10
2014,10,24,14,52,11.10
2014,10,24,14,53,11.10
2014,10,24,14,54,11.10
2014,10,24,14,55,11.00
2014,10,24,14,56,11.00
2014,10,24,14,57,11.00
2014,10,24,14,58,11.00
2014,10,24,14,59,11.00
2014,10,24,15,00,11.00
2014,10,24,15,01,10.90
2014,10,24,15,02,11.00
2014,10,24,15,03,11.00
2014,10,24,15,04,11.00
2014,10,24,15,05,11.00
2014,10,24,15,06,11.00
2014,10,24,15,07,11.00
2014,10,24,15,08,11.00
2014,10,24,15,09,11.00
2014,10,24,15,10,11.00
2014,10,24,15,11,11.10
2014,10,24,15,12,11.10
2014,10,24,15,13,11.10
2014,10,24,15,14,11.10
2014,10,24,15,15,11.10
2014,10,24,15,16,11.10
2014,10,24,15,17,11.10
2014,10,24,15,18,11.10
2014,10,24,15,19,11.10
2014,10,24,15,20,11.20
2014,10,24,15,21,11.20
2014,10,24,15,22,11.20
2014,10,24,15,23,11.20
2014,10,24,15,24,11.20
2014,10,24,15,25,11.20
2014,10,24,15,26,11.20
2014,10,24,15,27,11.20
2014,10,24,15,28,11.20
2014,10,24,15,29,11.20
2014,10,24,15,30,11.20
2014,10,24,15,31,11.20
2014,10,24,15,32,11.20
2014,10,24,15,33,11.20
2014,10,24,15,34,11.20
2014,10,24,15,35,11.20
2014,10,24,15,36,11.20
2014,10,24,15,37,11.20
2014,10,24,15,38,11.20
2014,10,24,15,39,11.20
2014,10,24,15,40,11.20
2014,10,24,15,41,11.20
2014,10,24,15,42,11.20
2014,10,24,15,43,11.10
2014,10,24,15,44,11.20
2014,10,24,15,45,11.10
2014,10,24,15,46,11.10
2014,10,24,15,47,11.10
2014,10,24,15,48,11.20
2014,10,24,15,49,11.20
2014,10,24,15,50,11.20
2014,10,24,15,51,11.20
2014,10,24,15,52,11.20
2014,10,24,15,53,11.20
2014,10,24,15,54,11.20
2014,10,24,15,55,11.20
2014,10,24,15,56,11.20
2014,10,24,15,57,11.20
2014,10,24,15,58,11.20
2014,10,24,15,59,11.20
2014,10,24,16,00,11.20
2014,10,24,16,01,11.20
2014,10,24,16,02,11.20
2014,10,24,16,03,11.20
2014,10,24,16,04,11.20
2014,10,24,16,05,11.20
2014,10,24,16,06,11.20
2014,10,24,16,07,11.30
2014,10,24,16,08,11.30
2014,10,24,16,09,11.30
2014,10,24,16,10,11.30
2014,10,24,16,11,11.30
2014,10,24,16,12,11.20
2014,10,24,16,13,11.20
2014,10,24,16,14,11.20
2014,10,24,16,15,11.20
2014,10,24,16,16,11.20
2014,10,24,16,17,11.20
2014,10,24,16,18,11.20
2014,10,24,16,19,11.20
2014,10,24,16,20,11.20
2014,10,24,16,21,11.20
2014,10,24,16,22,11.20
2014,10,24,16,23,11.20
2014,10,24,16,24,11.20
2014,10,24,16,25,11.20
2014,10,24,16,26,11.20
2014,10,24,16,27,11.20
2014,10,24,16,28,11.20
2014,10,24,16,29,11.20
2014,10,24,16,30,11.20
2014,10,24,16,31,11.20
2014,10,24,16,32,11.20
2014,10,24,16,33,11.20
2014,10,24,16,34,11.20
2014,10,24,16,35,11.20
2014,10,24,16,36,11.20
2014,10,24,16,37,11.20
2014,10,24,16,38,11.20
2014,10,24,16,39,11.20
2014,10,24,16,40,11.20
2014,10,24,16,41,11.20
2014,10,24,16,42,11.20
2014,10,24,16,43,11.20
2014,10,24,16,44,11.10
2014,10,24,16,45,11.10
2014,10,24,16,46,11.10
2014,10,24,16,47,11.10
2014,10,24,16,48,11.10
2014,10,24,16,49,11.10
2014,10,24,16,50,11.10
2014,10,24,16,51,11.10
2014,10,24,16,52,11.10
2014,10,24,16,53,11.10
2014,10,24,16,54,11.10
2014,10,24,16,55,11.10
2014,10,24,16,56,11.10
2014,10,24,16,57,11.10
2014,10,24,16,58,11.00
2014,10,24,16,59,11.00
2014,10,24,17,00,11.00
2014,10,24,17,01,11.00
2014,10,24,17,02,11.00
2014,10,24,17,03,11.00
2014,10,24,17,04,11.00
2014,10,24,17,05,11.00
2014,10,24,17,06,11.00
2014,10,24,17,07,11.00
2014,10,24,17,08,11.00
2014,10,24,17,09,11.00
2014,10,24,17,10,11.00
2014,10,24,17,11,11.00
2014,10,24,17,12,11.00
2014,10,24,17,13,11.00
2014,10,24,17,14,10.90
2014,10,24,17,15,11.00
2014,10,24,17,16,10.90
2014,10,24,17,17,10.90
2014,10,24,17,18,10.90
2014,10,24,17,19,10.90
2014,10,24,17,20,10.90
2014,10,24,17,21,10.90
2014,10,24,17,22,10.90
2014,10,24,17,23,10.90
2014,10,24,17,24,10.90
2014,10,24,17,25,10.90
2014,10,24,17,26,10.90
2014,10,24,17,27,10.90
2014,10,24,17,28,10.90
2014,10,24,17,29,10.90
2014,10,24,17,30,10.90
2014,10,24,17,31,10.80
2014,10,24,17,32,10.80
2014,10,24,17,33,10.80
2014,10,24,17,34,10.80
2014,10,24,17,35,10.70
2014,10,24,17,36,10.70
2014,10,24,17,37,10.70
2014,10,24,17,38,10.70
2014,10,24,17,39,10.70
2014,10,24,17,40,10.60
2014,10,24,17,41,10.60
2014,10,24,17,42,10.60
2014,10,24,17,43,10.60
2014,10,24,17,44,10.50
2014,10,24,17,45,10.50
2014,10,24,17,46,10.50
2014,10,24,17,47,10.50
2014,10,24,17,48,10.50
2014,10,24,17,49,10.40
2014,10,24,17,50,10.40
2014,10,24,17,51,10.40
2014,10,24,17,52,10.40